Location: Radomski Observatory
(40.2854°N, 79.5145°W)
Time: 07:02:04
(UTC-04:00)

Daily predictions for brighter satellites

Satellite Brightness Start Highest point End
(mag) Time Altitude Azimuth Time Altitude Azimuth Time Altitude Azimuth
ATLAS 3B R/B 3.7 21:14:14 10° NNW 21:20:12 34° NE 21:26:05 10° ESE
Resurs 1-3 3.7 21:16:44 10° SSE 21:21:06 84° WSW 21:25:30 10° NNW
Lacrosse 5 2.5 21:17:14 10° SW 21:22:15 62° NW 21:27:17 10° NE
Cosmos 1939 Rocket 3.7 21:18:40 10° S 21:22:39 53° W 21:26:35 10° NNW
ARGOS 3.9 21:18:39 10° SE 21:23:35 37° ENE 21:28:32 10° N
Cosmos 1953 Rocket 3.7 21:22:34 10° S 21:26:48 54° E 21:31:06 10° NNE
Cosmos 2278 Rocket 3.6 21:23:17 10° SE 21:26:55 18° E 21:30:33 10° ENE
USA 238 DEB 4.3 21:20:10 10° NNW 21:27:05 50° NE 21:34:04 10° ESE
USA 238 4.3 21:20:17 10° NNW 21:27:11 49° NE 21:34:09 10° ESE
Cosmos 1758 Rocket 3.5 21:27:20 10° S 21:31:46 79° E 21:36:11 10° N
Cosmos 1315 Rocket 3.0 21:35:11 10° SSW 21:39:15 78° W 21:43:22 10° N
Cosmos 1844 Rocket 2.7 21:34:57 10° SSW 21:40:36 77° ESE 21:46:16 10° NNE
Cosmos 494 Rocket 4.1 21:37:42 10° S 21:42:47 54° ESE 21:47:55 10° NNE
Cosmos 1331 Rocket 4.5 21:38:39 10° N 21:43:40 46° ENE 21:48:20 12° SE
Cosmos 921 Rocket 3.4 21:40:25 10° N 21:44:49 54° ENE 21:48:59 11° SSE
COSMOS 2406 3.7 21:42:51 10° NNW 21:48:27 49° ENE 21:53:24 13° SE
Cosmos 1461 4.0 21:45:51 10° S 21:49:50 29° ESE 21:53:56 10° NE
Cosmos 1844 3.7 21:44:33 10° SSW 21:50:12 70° ESE 21:55:57 10° NNE
SAR-Lupe-3 4.5 21:46:42 10° NNE 21:50:18 85° ESE 21:53:52 10° SSW
Resurs 01 Rocket 2.8 21:47:33 10° S 21:51:42 40° W 21:55:55 10° NNW
Cosmos 1269 Rocket 4.4 21:47:17 10° SSW 21:52:34 70° WNW 21:57:53 10° NNE
H-2A R/B 2.4 21:47:31 10° SSE 21:52:36 55° ENE 21:57:52 10° N
ATLAS 2AS CENTAUR R/B 3.2 21:45:31 10° SW 21:53:19 82° NW 22:01:30 10° NNE
KORONAS-FOTON 4.3 21:51:21 10° SSE 21:55:01 41° E 21:58:44 10° NNE
ATLAS 5 CENTAUR R/B 3.0 21:53:56 13° SE 21:56:05 18° ESE 21:59:16 10° ENE
Cosmos 1437 3.0 21:55:51 10° NNW 21:59:00 66° W 22:02:07 10° S
Iridium 4 Rocket 4.1 21:55:13 10° SSW 22:00:45 62° W 22:05:52 10° N
OAO 3 Rocket 3.8 21:56:21 10° WSW 22:01:01 41° S 22:04:34 16° SE
Cosmos 220 Rocket 4.1 22:04:08 10° S 22:08:14 52° ESE 22:12:20 10° NNE
Cosmos 1346 Rocket 3.1 22:04:18 10° NNW 22:08:19 67° W 22:12:14 11° S
Terra 3.6 22:06:53 12° ESE 22:09:37 18° ENE 22:12:48 10° NNE
BREEZE-M DEB (TANK) 3.9 21:59:55 10° WSW 22:10:38 67° NNW 22:13:58 10° NE
ERS-1 Rocket 3.2 22:06:44 16° SSE 22:10:39 57° ENE 22:15:36 10° N
Cosmos 1626 4.2 22:10:24 13° E 22:10:53 13° E 22:12:37 10° ENE
Meteor 1-24 Rocket 4.4 22:06:21 10° SSW 22:12:20 64° WNW 22:18:18 10° N
Cosmos 1833 Rocket 4.4 22:09:13 10° N 22:13:25 21° NE 22:17:18 11° E
Cosmos 1302 Rocket 4.5 22:08:22 10° N 22:13:29 47° ENE 22:16:58 19° SE
Cosmos 2082 Rocket 4.0 22:10:41 10° N 22:14:47 20° NE 22:18:47 10° E
USA 215 3.6 22:14:20 16° SSE 22:19:40 58° SW 22:26:08 10° NW
CZ-2C R/B 4.4 22:17:05 10° ENE 22:19:48 14° E 22:20:49 13° ESE
Cosmos 1745 Rocket 4.2 22:14:06 10° N 22:20:20 58° E 22:24:48 19° SSE
SL-08 R/B 4.5 22:15:51 10° N 22:22:01 75° E 22:27:01 17° SSE
Iridium 81 3.8 22:20:50 23° S 22:22:14 75° W 22:25:10 10° N
Cosmos 1340 2.7 22:18:57 10° N 22:22:44 66° E 22:24:49 25° SSE
Cosmos 1908 3.4 22:19:00 10° NNW 22:22:51 71° W 22:25:48 17° S
DMSP B5D2-2 4.1 22:19:36 10° NNE 22:24:47 60° E 22:29:09 14° S
CENTAUR R/B 4.2 22:19:02 10° NNW 22:26:08 35° NE 22:33:17 12° ESE
MetOp-B 4.3 22:22:43 14° S 22:27:19 74° WSW 22:32:42 10° NNW
NOSS 2-2 (E) 3.8 22:26:03 22° S 22:27:59 37° ESE 22:31:52 10° NE
Cosmos 2251 Rocket 3.5 22:23:07 10° S 22:28:26 71° ESE 22:33:44 10° NNE
Cosmos-2242 4.2 22:26:04 10° NNW 22:30:12 41° W 22:34:19 10° SSW
NOSS 3-4 (A) 3.4 22:24:50 10° SSW 22:30:52 62° ESE 22:37:08 10° NE
NOSS 3-4 (C) 3.4 22:24:56 10° SSW 22:30:57 61° ESE 22:37:13 10° NE
Meteor 2-10 4.2 22:29:52 10° N 22:35:23 89° WSW 22:39:22 20° S
SL-08 RB Rocket 4.3 22:33:08 15° S 22:36:49 56° W 22:41:26 10° NNW
Cosmos 1674 4.0 22:33:48 10° SSW 22:37:22 38° WNW 22:41:00 10° N
Helios 1B rocket 3.0 22:33:53 10° NNE 22:37:44 37° E 22:38:53 31° SE
Helios 1A 3.1 22:37:59 30° SE 22:39:55 63° ENE 22:44:06 10° N
Meteor 1-29 4.1 22:38:53 10° NE 22:41:37 26° E 22:41:37 26° E
Cosmos 1726 2.7 22:40:01 10° NNW 22:43:41 53° W 22:45:50 22° SSW
Cosmos 1300 2.8 22:41:18 10° N 22:45:06 61° E 22:46:20 38° SE
S3M 4.2 22:40:56 10° SSW 22:47:16 76° W 22:53:42 10° N
APEX 3.2 22:47:58 10° NNW 22:51:14 67° WSW 22:52:31 38° S
Cosmos 1709 Rocket 4.3 22:47:25 10° N 22:53:28 51° E 22:56:22 29° SE
Cosmos 1842 Rocket 3.8 22:50:20 10° NNW 22:54:39 64° W 22:56:56 27° SSW
CZ-2C R/B 3.8 22:54:27 28° SE 22:57:12 49° ENE 23:02:42 10° N
SPOT 5 3.1 22:54:57 28° S 22:57:44 80° WSW 23:03:03 10° NNW
NOSS 2-2 (D) 3.2 22:57:19 31° SSW 22:59:01 67° ESE 23:03:13 10° NE
RESURS DK-1 2.8 23:03:43 41° ESE 23:03:47 41° ESE 23:07:42 10° NE
Cosmos 2278 Rocket 2.6 23:04:47 10° SW 23:10:24 62° WNW 23:16:03 10° NNE
ATLAS 3B R/B 3.1 23:04:44 10° NW 23:11:06 51° WSW 23:14:25 27° S
Cosmos 1328 3.6 23:14:45 59° SSE 23:15:24 76° E 23:19:22 10° N
Cosmos 2221 2.7 23:15:39 10° NNW 23:19:55 65° W 23:21:10 42° SSW
Spot 1 4.1 23:21:12 50° S 23:22:20 87° WSW 23:27:00 10° NNW
SL-27 R/B 3.0 23:21:02 10° N 23:24:32 47° ENE 23:24:32 47° ENE
NOSS 2-2 (C) 3.7 23:22:44 21° SW 23:25:12 63° NW 23:29:27 10° NNE
Landsat 7 4.4 23:25:42 32° SSW 23:27:29 49° W 23:32:08 10° NNW
Okean 3 Rocket 3.5 23:27:16 52° SSW 23:28:19 86° WNW 23:32:42 10° N
NOSS 3-2 (A) 4.5 23:21:40 10° NW 23:29:04 52° WSW 23:33:11 29° S
H-2A R/B 4.3 23:28:41 10° SW 23:32:20 19° W 23:36:02 10° NW
Cosmos 2315 Rocket 4.1 23:29:38 29° SSW 23:33:03 80° W 23:39:27 10° N
Aureole 3 Rocket 4.1 23:31:28 28° S 23:35:40 86° W 23:41:12 10° N
Cosmos 1328 Rocket 4.5 23:32:28 10° N 23:36:27 34° ENE 23:36:39 34° E
Cosmos 2369 Rocket 4.0 23:39:36 16° E 23:39:36 16° E 23:42:19 10° ENE
Cosmos 405 Rocket 4.2 23:36:37 10° NNE 23:39:21 25° ENE 23:39:21 25° ENE
ATLAS 5 CENTAUR R/B 2.6 23:35:55 10° SW 23:40:14 47° NW 23:44:59 10° NNE
IGS 5A 4.3 23:40:24 36° SW 23:41:13 40° W 23:45:09 10° NNW
Cosmos 2228 Rocket 4.4 23:41:06 10° NNE 23:44:55 27° ENE 23:45:04 27° ENE
Cosmos 1626 3.4 23:45:00 31° WSW 23:45:50 35° WNW 23:49:17 10° N
Terra 2.4 23:45:46 39° SW 23:46:57 48° W 23:51:35 10° NNW
Cosmos 2184 Rocket 4.2 23:42:35 10° N 23:48:49 56° E 23:50:33 43° SE
